This is the latest recevied weather packets stored in our database for station/object NZ3C. If no packets are shown the sender has not sent any weather packets the latest 10 day(s).
| Time | Temp. | Humidity | Pressure | Rain* | Wind** | Luminosity | Snow |
|---|---|---|---|---|---|---|---|
| 1777769075 | 10° C | 96% | 1013.9 hPa | 0 mm | - | 0 W/m² | - |
| 1777768773 | 10° C | 96% | 1013.8 hPa | 0 mm | - | 0 W/m² | - |
| 1777768469 | 10° C | 96% | 1013.9 hPa | 0 mm | - | 0 W/m² | - |
| 1777768167 | 10° C | 96% | 1013.7 hPa | 0 mm | - | 0 W/m² | - |
| 1777767864 | 10.56° C | 96% | 1013.9 hPa | 0 mm | - | 0 W/m² | - |
| 1777767560 | 10.56° C | 96% | 1013.6 hPa | 0 mm | - | 0 W/m² | - |
| 1777767256 | 10.56° C | 96% | 1013.6 hPa | 0 mm | - | 0 W/m² | - |
| 1777766955 | 10.56° C | 96% | 1013.7 hPa | 0 mm | - | 0 W/m² | - |
| 1777766651 | 10.56° C | 96% | 1013.6 hPa | 0 mm | - | 1 W/m² | - |
| 1777766348 | 10.56° C | 95% | 1013.7 hPa | 0 mm | - | 1 W/m² | - |
| 1777766045 | 10.56° C | 95% | 1013.5 hPa | 0 mm | - | 3 W/m² | - |
| 1777765743 | 10.56° C | 95% | 1013.4 hPa | 0 mm | - | 4 W/m² | - |
| 1777765439 | 10.56° C | 95% | 1013.5 hPa | 0 mm | - | 5 W/m² | - |
| 1777765136 | 10.56° C | 94% | 1013.3 hPa | 0 mm | - | 9 W/m² | - |
| 1777764832 | 10.56° C | 94% | 1013.4 hPa | 0 mm | - | 9 W/m² | - |
| 1777764529 | 10.56° C | 94% | 1013.5 hPa | 0 mm | - | 11 W/m² | - |
| 1777764225 | 10.56° C | 93% | 1013.3 hPa | 0 mm | - | 12 W/m² | - |
| 1777763922 | 10.56° C | 93% | 1013.4 hPa | 0 mm | - | 16 W/m² | - |
| 1777763620 | 10.56° C | 93% | 1013.3 hPa | 0 mm | - | 24 W/m² | - |
| 1777763318 | 10.56° C | 93% | 1013.2 hPa | 0 mm | - | 25 W/m² | - |
| 1777763016 | 10.56° C | 92% | 1013.2 hPa | 0 mm | - | 22 W/m² | - |
| 1777762712 | 10.56° C | 92% | 1013.3 hPa | 1.27 mm | - | 24 W/m² | - |
| 1777762409 | 10.56° C | 92% | 1013.4 hPa | 1.27 mm | - | 28 W/m² | - |
| 1777762106 | 10.56° C | 91% | 1013.4 hPa | 0 mm | - | 30 W/m² | - |
| 1777761802 | 10.56° C | 91% | 1013.2 hPa | 0 mm | - | 29 W/m² | - |
* Rain latest hour (hover to see other rain measurements)
** Current wind speed in m/s (hover to see current wind gust speed)